Regional Weather Roundup
Issued by NWS Charleston, WV

Home | Current Version | Previous Version | Text Only | Print | Product List | Glossary On
Versions: 1 2 3 4 5 6 7 8 9 10 11 12 13 14 15 16 17 18 19 20 21 22 23 24 25 26 27 28 29 30 31 32 33 34 35 36 37 38 39 40 41 42 43 44 45 46 47 48 49 50
000
ASUS41 KRLX 161110
RWRRLX
West Virginia Regional Weather Roundup
National Weather Service Charleston WV
600 AM EST MON JAN 16 2017

Note: "fair" indicates few or no clouds below 12,000 feet with no
significant weather and/or obstructions to visibility.

WVZ003-161200-
Northern Panhandle of West Virginia

CITY           SKY/WX    TMP DP  RH WIND       PRES   REMARKS
WHEELING       CLOUDY    28  21  75 E8        30.32S
$$

WVZ009-161200-
Northwest West Virginia

CITY           SKY/WX    TMP DP  RH WIND       PRES   REMARKS
PARKERSBURG    CLOUDY    34  32  92 CALM      30.34S FOG
$$

WVZ006-161200-
Western West Virginia

CITY           SKY/WX    TMP DP  RH WIND       PRES   REMARKS
HUNTINGTON     CLOUDY    40  38  93 NE3       30.30R FOG
$$

WVZ015-161200-
West Central West Virginia

CITY           SKY/WX    TMP DP  RH WIND       PRES   REMARKS
CHARLESTON     CLOUDY    41  39  93 CALM      30.30R FOG
$$

WVZ022-031-161200-
North Central West Virginia

CITY           SKY/WX    TMP DP  RH WIND       PRES   REMARKS
CLARKSBURG     CLOUDY    32  29  88 CALM      30.30F
MORGANTOWN     CLOUDY    30  26  85 N5        30.32S
$$

WVZ025-035-042-045-161200-
Southern West Virginia

CITY           SKY/WX    TMP DP  RH WIND       PRES   REMARKS
BECKLEY        FOG       47  46  97 SE3       30.27R VSB 1/2
LOGAN          FOG       43  43 100 CALM      30.27S VSB<1/4
BLUEFIELD      CLOUDY    46  45  96 CALM      30.29R
LEWISBURG      DRIZZLE   43  42  99 CALM      30.30R
$$

WVZ047-161200-
Northern Mountains of West Virginia

CITY           SKY/WX    TMP DP  RH WIND       PRES   REMARKS
ELKINS         CLOUDY    38  35  89 CALM      30.30F FOG
$$

WVZ052-161200-
Eastern Panhandle of West Virginia

CITY           SKY/WX    TMP DP  RH WIND       PRES   REMARKS
MARTINSBURG    CLOUDY    32  23  69 N5        30.41R
PETERSBURG     CLOUDY    38  31  76 CALM      30.38R
$$




USA.gov is the U.S. government's official web portal to all federal, state and local government web resources and services.